Location: Asheville, NC
(35.6000°N, 82.5500°W)
Time: 03:07:23
(UTC-04:00)

Vanguard 2 - Pass Details

Date: 10 March 2018
Orbit: 553 x 2939 km, 32.9° (Epoch: 19 June)

Event Time Altitude Azimuth Distance (km) Brightness Sun altitude
Rises 14:22:03 0° 266° (W) 6,556 12.7 43.9°
Reaches altitude 10° 14:26:12 10° 265° (W) 5,670 12.5 43.4°
Maximum altitude 14:44:20 81° 182° (S) 2,830 11.3 41.0°
Drops below altitude 10° 14:59:06 10° 97° (E) 4,751 11.3 38.9°
Sets 15:02:14 0° 97° (E) 5,492 11.6 38.4°
